Year,Month,Day,Hour,Minute,Value (Times are PST for windspeed in km/hr)
2006,12,12,00,00,7.00
2006,12,12,00,01,8.90
2006,12,12,00,02,8.50
2006,12,12,00,03,7.60
2006,12,12,00,04,8.40
2006,12,12,00,05,6.50
2006,12,12,00,06,11.00
2006,12,12,00,07,9.50
2006,12,12,00,08,9.20
2006,12,12,00,09,7.80
2006,12,12,00,10,7.00
2006,12,12,00,11,8.50
2006,12,12,00,12,12.60
2006,12,12,00,13,15.00
2006,12,12,00,14,17.10
2006,12,12,00,15,15.30
2006,12,12,00,16,14.90
2006,12,12,00,17,14.00
2006,12,12,00,18,13.90
2006,12,12,00,19,12.30
2006,12,12,00,20,9.40
2006,12,12,00,21,8.30
2006,12,12,00,22,7.00
2006,12,12,00,23,9.80
2006,12,12,00,24,10.30
2006,12,12,00,25,8.50
2006,12,12,00,26,7.70
2006,12,12,00,27,8.10
2006,12,12,00,28,8.00
2006,12,12,00,29,9.70
2006,12,12,00,30,6.30
2006,12,12,00,31,7.60
2006,12,12,00,32,8.60
2006,12,12,00,33,7.00
2006,12,12,00,34,8.00
2006,12,12,00,35,10.70
2006,12,12,00,36,9.40
2006,12,12,00,37,10.30
2006,12,12,00,38,8.40
2006,12,12,00,39,7.70
2006,12,12,00,40,6.20
2006,12,12,00,41,4.70
2006,12,12,00,42,7.60
2006,12,12,00,43,9.40
2006,12,12,00,44,11.70
2006,12,12,00,45,10.70
2006,12,12,00,46,9.70
2006,12,12,00,47,7.40
2006,12,12,00,48,6.70
2006,12,12,00,49,7.20
2006,12,12,00,50,7.10
2006,12,12,00,51,3.60
2006,12,12,00,52,11.50
2006,12,12,00,53,10.20
2006,12,12,00,54,7.60
2006,12,12,00,55,9.70
2006,12,12,00,56,10.30
2006,12,12,00,57,7.50
2006,12,12,00,58,7.80
2006,12,12,00,59,7.50
2006,12,12,01,00,6.80
2006,12,12,01,01,8.90
2006,12,12,01,02,7.90
2006,12,12,01,03,15.50
2006,12,12,01,04,12.80
2006,12,12,01,05,15.40
2006,12,12,01,06,14.60
2006,12,12,01,07,14.70
2006,12,12,01,08,12.40
2006,12,12,01,09,9.00
2006,12,12,01,10,10.40
2006,12,12,01,11,15.80
2006,12,12,01,12,12.80
2006,12,12,01,13,9.90
2006,12,12,01,14,10.10
2006,12,12,01,15,10.50
2006,12,12,01,16,11.90
2006,12,12,01,17,9.80
2006,12,12,01,18,8.80
2006,12,12,01,19,8.50
2006,12,12,01,20,7.60
2006,12,12,01,21,8.80
2006,12,12,01,22,7.80
2006,12,12,01,23,10.00
2006,12,12,01,24,10.90
2006,12,12,01,25,11.00
2006,12,12,01,26,10.20
2006,12,12,01,27,11.30
2006,12,12,01,28,13.10
2006,12,12,01,29,16.10
2006,12,12,01,30,16.00
2006,12,12,01,31,17.50
2006,12,12,01,32,14.60
2006,12,12,01,33,12.10
2006,12,12,01,34,15.00
2006,12,12,01,35,15.40
2006,12,12,01,36,15.60
2006,12,12,01,37,16.60
2006,12,12,01,38,13.80
2006,12,12,01,39,18.10
2006,12,12,01,40,15.60
2006,12,12,01,41,20.10
2006,12,12,01,42,20.40
2006,12,12,01,43,22.10
2006,12,12,01,44,17.10
2006,12,12,01,45,19.50
2006,12,12,01,46,21.10
2006,12,12,01,47,18.10
2006,12,12,01,48,15.80
2006,12,12,01,49,14.00
2006,12,12,01,50,17.40
2006,12,12,01,51,19.30
2006,12,12,01,52,17.20
2006,12,12,01,53,15.50
2006,12,12,01,54,17.50
2006,12,12,01,55,18.70
2006,12,12,01,56,17.50
2006,12,12,01,57,16.90
2006,12,12,01,58,15.60
2006,12,12,01,59,15.30
2006,12,12,02,00,16.80
2006,12,12,02,01,16.30
2006,12,12,02,02,15.30
2006,12,12,02,03,15.00
2006,12,12,02,04,11.40
2006,12,12,02,05,7.30
2006,12,12,02,06,11.00
2006,12,12,02,07,13.00
2006,12,12,02,08,13.00
2006,12,12,02,09,9.50
2006,12,12,02,10,10.70
2006,12,12,02,11,12.30
2006,12,12,02,12,12.90
2006,12,12,02,13,15.20
2006,12,12,02,14,14.60
2006,12,12,02,15,9.40
2006,12,12,02,16,9.80
2006,12,12,02,17,11.00
2006,12,12,02,18,8.90
2006,12,12,02,19,7.00
2006,12,12,02,20,9.00
2006,12,12,02,21,9.00
2006,12,12,02,22,13.30
2006,12,12,02,23,13.80
2006,12,12,02,24,12.00
2006,12,12,02,25,10.00
2006,12,12,02,26,3.90
2006,12,12,02,27,9.70
2006,12,12,02,28,15.90
2006,12,12,02,29,13.30
2006,12,12,02,30,13.70
2006,12,12,02,31,8.30
2006,12,12,02,32,5.60
2006,12,12,02,33,8.00
2006,12,12,02,34,6.90
2006,12,12,02,35,7.60
2006,12,12,02,36,7.70
2006,12,12,02,37,6.20
2006,12,12,02,38,6.60
2006,12,12,02,39,8.90
2006,12,12,02,40,6.40
2006,12,12,02,41,7.30
2006,12,12,02,42,9.50
2006,12,12,02,43,9.70
2006,12,12,02,44,5.10
2006,12,12,02,45,10.10
2006,12,12,02,46,5.50
2006,12,12,02,47,4.70
2006,12,12,02,48,5.90
2006,12,12,02,49,9.90
2006,12,12,02,50,9.40
2006,12,12,02,51,6.40
2006,12,12,02,52,9.00
2006,12,12,02,53,10.50
2006,12,12,02,54,6.60
2006,12,12,02,55,8.00
2006,12,12,02,56,8.20
2006,12,12,02,57,9.70
2006,12,12,02,58,9.60
2006,12,12,02,59,7.10
2006,12,12,03,00,4.90
2006,12,12,03,01,5.90
2006,12,12,03,02,4.80
2006,12,12,03,03,5.10
2006,12,12,03,04,4.90
2006,12,12,03,05,5.30
2006,12,12,03,06,5.50
2006,12,12,03,07,3.60
2006,12,12,03,08,3.20
2006,12,12,03,09,2.60
2006,12,12,03,10,3.90
2006,12,12,03,11,3.00
2006,12,12,03,12,6.00
2006,12,12,03,13,6.00
2006,12,12,03,14,6.00
2006,12,12,03,15,4.10
2006,12,12,03,16,4.70
2006,12,12,03,17,4.60
2006,12,12,03,18,5.10
2006,12,12,03,19,8.70
2006,12,12,03,20,13.20
2006,12,12,03,21,6.80
2006,12,12,03,22,2.80
2006,12,12,03,23,1.10
2006,12,12,03,24,3.40
2006,12,12,03,25,4.20
2006,12,12,03,26,4.10
2006,12,12,03,27,4.60
2006,12,12,03,28,2.80
2006,12,12,03,29,1.70
2006,12,12,03,30,0.00
2006,12,12,03,31,1.00
2006,12,12,03,32,3.60
2006,12,12,03,33,1.60
2006,12,12,03,34,2.10
2006,12,12,03,35,3.50
2006,12,12,03,36,2.90
2006,12,12,03,37,6.80
2006,12,12,03,38,8.40
2006,12,12,03,39,3.60
2006,12,12,03,40,2.60
2006,12,12,03,41,2.30
2006,12,12,03,42,4.50
2006,12,12,03,43,7.60
2006,12,12,03,44,4.30
2006,12,12,03,45,3.60
2006,12,12,03,46,7.00
2006,12,12,03,47,6.20
2006,12,12,03,48,8.70
2006,12,12,03,49,6.10
2006,12,12,03,50,5.10
2006,12,12,03,51,3.20
2006,12,12,03,52,2.80
2006,12,12,03,53,3.50
2006,12,12,03,54,3.50
2006,12,12,03,55,1.80
2006,12,12,03,56,0.70
2006,12,12,03,57,1.70
2006,12,12,03,58,1.50
2006,12,12,03,59,0.10
2006,12,12,04,00,0.00
2006,12,12,04,01,0.20
2006,12,12,04,02,0.00
2006,12,12,04,03,0.00
2006,12,12,04,04,0.00
2006,12,12,04,05,0.00
2006,12,12,04,06,0.00
2006,12,12,04,07,0.00
2006,12,12,04,08,0.10
2006,12,12,04,09,2.50
2006,12,12,04,10,2.50
2006,12,12,04,11,0.40
2006,12,12,04,12,0.00
2006,12,12,04,13,0.00
2006,12,12,04,14,0.00
2006,12,12,04,15,0.00
2006,12,12,04,16,0.20
2006,12,12,04,17,2.10
2006,12,12,04,18,2.30
2006,12,12,04,19,3.70
2006,12,12,04,20,4.00
2006,12,12,04,21,1.40
2006,12,12,04,22,0.00
2006,12,12,04,23,0.20
2006,12,12,04,24,1.60
2006,12,12,04,25,2.30
2006,12,12,04,26,2.90
2006,12,12,04,27,1.90
2006,12,12,04,28,0.00
2006,12,12,04,29,0.00
2006,12,12,04,30,0.00
2006,12,12,04,31,0.00
2006,12,12,04,32,0.00
2006,12,12,04,33,1.30
2006,12,12,04,34,0.20
2006,12,12,04,35,0.10
2006,12,12,04,36,0.00
2006,12,12,04,37,0.20
2006,12,12,04,38,0.00
2006,12,12,04,39,0.00
2006,12,12,04,40,0.00
2006,12,12,04,41,0.40
2006,12,12,04,42,0.90
2006,12,12,04,43,1.30
2006,12,12,04,44,0.80
2006,12,12,04,45,0.60
2006,12,12,04,46,0.10
2006,12,12,04,47,0.00
2006,12,12,04,48,0.00
2006,12,12,04,49,0.00
2006,12,12,04,50,0.10
2006,12,12,04,51,0.40
2006,12,12,04,52,0.30
2006,12,12,04,53,1.90
2006,12,12,04,54,3.00
2006,12,12,04,55,2.90
2006,12,12,04,56,2.70
2006,12,12,04,57,2.30
2006,12,12,04,58,2.80
2006,12,12,04,59,4.40
2006,12,12,05,00,3.30
2006,12,12,05,01,3.10
2006,12,12,05,02,3.10
2006,12,12,05,03,4.20
2006,12,12,05,04,3.90
2006,12,12,05,05,5.10
2006,12,12,05,06,4.70
2006,12,12,05,07,5.20
2006,12,12,05,08,4.80
2006,12,12,05,09,4.70
2006,12,12,05,10,5.50
2006,12,12,05,11,5.40
2006,12,12,05,12,4.30
2006,12,12,05,13,4.30
2006,12,12,05,14,7.50
2006,12,12,05,15,7.30
2006,12,12,05,16,5.20
2006,12,12,05,17,7.20
2006,12,12,05,18,6.00
2006,12,12,05,19,7.30
2006,12,12,05,20,5.50
2006,12,12,05,21,4.80
2006,12,12,05,22,3.90
2006,12,12,05,23,3.90
2006,12,12,05,24,6.00
2006,12,12,05,25,7.30
2006,12,12,05,26,7.10
2006,12,12,05,27,5.20
2006,12,12,05,28,6.70
2006,12,12,05,29,9.20
2006,12,12,05,30,8.90
2006,12,12,05,31,11.20
2006,12,12,05,32,11.30
2006,12,12,05,33,13.40
2006,12,12,05,34,13.90
2006,12,12,05,35,11.70
2006,12,12,05,36,12.20
2006,12,12,05,37,12.50
2006,12,12,05,38,15.90
2006,12,12,05,39,14.10
2006,12,12,05,40,14.00
2006,12,12,05,41,14.40
2006,12,12,05,42,12.20
2006,12,12,05,43,9.30
2006,12,12,05,44,12.00
2006,12,12,05,45,9.50
2006,12,12,05,46,15.80
2006,12,12,05,47,15.70
2006,12,12,05,48,11.30
2006,12,12,05,49,9.50
2006,12,12,05,50,8.60
2006,12,12,05,51,7.30
2006,12,12,05,52,13.40
2006,12,12,05,53,14.20
2006,12,12,05,54,13.40
2006,12,12,05,55,11.10
2006,12,12,05,56,9.70
2006,12,12,05,57,7.70
2006,12,12,05,58,7.10
2006,12,12,05,59,10.10
2006,12,12,06,00,13.20
2006,12,12,06,01,8.30
2006,12,12,06,02,10.80
2006,12,12,06,03,14.50
2006,12,12,06,04,11.70
2006,12,12,06,05,12.30
2006,12,12,06,06,9.00
2006,12,12,06,07,7.70
2006,12,12,06,08,6.20
2006,12,12,06,09,4.70
2006,12,12,06,10,3.60
2006,12,12,06,11,7.30
2006,12,12,06,12,5.30
2006,12,12,06,13,6.40
2006,12,12,06,14,7.00
2006,12,12,06,15,3.50
2006,12,12,06,16,2.90
2006,12,12,06,17,3.70
2006,12,12,06,18,4.50
2006,12,12,06,19,5.60
2006,12,12,06,20,7.00
2006,12,12,06,21,8.60
2006,12,12,06,22,5.10
2006,12,12,06,23,4.70
2006,12,12,06,24,5.60
2006,12,12,06,25,4.60
2006,12,12,06,26,6.30
2006,12,12,06,27,8.10
2006,12,12,06,28,6.80
2006,12,12,06,29,4.90
2006,12,12,06,30,4.60
2006,12,12,06,31,6.00
2006,12,12,06,32,9.00
2006,12,12,06,33,5.80
2006,12,12,06,34,7.60
2006,12,12,06,35,8.50
2006,12,12,06,36,7.60
2006,12,12,06,37,8.20
2006,12,12,06,38,5.70
2006,12,12,06,39,8.40
2006,12,12,06,40,9.40
2006,12,12,06,41,8.40
2006,12,12,06,42,6.90
2006,12,12,06,43,6.00
2006,12,12,06,44,6.80
2006,12,12,06,45,7.60
2006,12,12,06,46,5.60
2006,12,12,06,47,4.30
2006,12,12,06,48,3.50
2006,12,12,06,49,4.60
2006,12,12,06,50,5.20
2006,12,12,06,51,4.40
2006,12,12,06,52,3.20
2006,12,12,06,53,2.30
2006,12,12,06,54,2.70
2006,12,12,06,55,6.80
2006,12,12,06,56,4.20
2006,12,12,06,57,3.70
2006,12,12,06,58,3.30
2006,12,12,06,59,1.70
2006,12,12,07,00,3.80
2006,12,12,07,01,4.80
2006,12,12,07,02,4.90
2006,12,12,07,03,3.30
2006,12,12,07,04,3.90
2006,12,12,07,05,1.90
2006,12,12,07,06,2.60
2006,12,12,07,07,3.20
2006,12,12,07,08,2.30
2006,12,12,07,09,3.40
2006,12,12,07,10,0.60
2006,12,12,07,11,0.20
2006,12,12,07,12,0.20
2006,12,12,07,13,2.40
2006,12,12,07,14,3.20
2006,12,12,07,15,1.90
2006,12,12,07,16,3.70
2006,12,12,07,17,3.90
2006,12,12,07,18,3.10
2006,12,12,07,19,5.10
2006,12,12,07,20,2.70
2006,12,12,07,21,4.00
2006,12,12,07,22,8.10
2006,12,12,07,23,6.00
2006,12,12,07,24,8.50
2006,12,12,07,25,9.80
2006,12,12,07,26,13.40
2006,12,12,07,27,12.70
2006,12,12,07,28,7.70
2006,12,12,07,29,4.00
2006,12,12,07,30,5.10
2006,12,12,07,31,3.60
2006,12,12,07,32,4.20
2006,12,12,07,33,6.70
2006,12,12,07,34,7.80
2006,12,12,07,35,6.00
2006,12,12,07,36,6.40
2006,12,12,07,37,6.50
2006,12,12,07,38,6.30
2006,12,12,07,39,5.60
2006,12,12,07,40,4.00
2006,12,12,07,41,4.10
2006,12,12,07,42,2.80
2006,12,12,07,43,3.90
2006,12,12,07,44,3.20
2006,12,12,07,45,5.20
2006,12,12,07,46,5.20
2006,12,12,07,47,5.30
2006,12,12,07,48,3.90
2006,12,12,07,49,4.10
2006,12,12,07,50,5.70
2006,12,12,07,51,4.00
2006,12,12,07,52,4.20
2006,12,12,07,53,5.10
2006,12,12,07,54,4.70
2006,12,12,07,55,4.60
2006,12,12,07,56,3.40
2006,12,12,07,57,4.00
2006,12,12,07,58,3.50
2006,12,12,07,59,2.90
2006,12,12,08,00,2.30
2006,12,12,08,01,2.10
2006,12,12,08,02,2.60
2006,12,12,08,03,3.20
2006,12,12,08,04,3.50
2006,12,12,08,05,4.40
2006,12,12,08,06,2.70
2006,12,12,08,07,3.30
2006,12,12,08,08,3.50
2006,12,12,08,09,2.40
2006,12,12,08,10,3.90
2006,12,12,08,11,4.10
2006,12,12,08,12,5.00
2006,12,12,08,13,4.30
2006,12,12,08,14,4.10
2006,12,12,08,15,3.80
2006,12,12,08,16,4.50
2006,12,12,08,17,1.80
2006,12,12,08,18,4.10
2006,12,12,08,19,7.80
2006,12,12,08,20,12.70
2006,12,12,08,21,15.20
2006,12,12,08,22,15.90
2006,12,12,08,23,16.70
2006,12,12,08,24,14.70
2006,12,12,08,25,17.50
2006,12,12,08,26,13.90
2006,12,12,08,27,16.50
2006,12,12,08,28,18.00
2006,12,12,08,29,18.10
2006,12,12,08,30,17.60
2006,12,12,08,31,22.10
2006,12,12,08,32,21.40
2006,12,12,08,33,14.10
2006,12,12,08,34,18.00
2006,12,12,08,35,17.80
2006,12,12,08,36,17.30
2006,12,12,08,37,20.80
2006,12,12,08,38,20.00
2006,12,12,08,39,11.30
2006,12,12,08,40,13.40
2006,12,12,08,41,19.10
2006,12,12,08,42,19.80
2006,12,12,08,43,17.80
2006,12,12,08,44,17.90
2006,12,12,08,45,21.90
2006,12,12,08,46,16.20
2006,12,12,08,47,10.20
2006,12,12,08,48,14.40
2006,12,12,08,49,19.60
2006,12,12,08,50,13.50
2006,12,12,08,51,11.80
2006,12,12,08,52,11.30
2006,12,12,08,53,11.70
2006,12,12,08,54,10.60
2006,12,12,08,55,11.00
2006,12,12,08,56,11.10
2006,12,12,08,57,8.50
2006,12,12,08,58,7.80
2006,12,12,08,59,9.10
2006,12,12,09,00,9.60
2006,12,12,09,01,12.10
2006,12,12,09,02,9.00
2006,12,12,09,03,14.20
2006,12,12,09,04,11.90
2006,12,12,09,05,7.90
2006,12,12,09,06,19.20
2006,12,12,09,07,13.00
2006,12,12,09,08,12.70
2006,12,12,09,09,11.40
2006,12,12,09,10,15.00
2006,12,12,09,11,13.50
2006,12,12,09,12,11.40
2006,12,12,09,13,10.90
2006,12,12,09,14,9.00
2006,12,12,09,15,10.80
2006,12,12,09,16,10.80
2006,12,12,09,17,10.10
2006,12,12,09,18,14.50
2006,12,12,09,19,12.60
2006,12,12,09,20,12.30
2006,12,12,09,21,15.10
2006,12,12,09,22,14.50
2006,12,12,09,23,10.20
2006,12,12,09,24,12.10
2006,12,12,09,25,12.50
2006,12,12,09,26,13.10
2006,12,12,09,27,10.50
2006,12,12,09,28,11.50
2006,12,12,09,29,7.80
2006,12,12,09,30,9.70
2006,12,12,09,31,15.50
2006,12,12,09,32,12.90
2006,12,12,09,33,9.60
2006,12,12,09,34,11.30
2006,12,12,09,35,9.00
2006,12,12,09,36,12.40
2006,12,12,09,37,6.50
2006,12,12,09,38,10.50
2006,12,12,09,39,14.40
2006,12,12,09,40,11.70
2006,12,12,09,41,12.40
2006,12,12,09,42,10.00
2006,12,12,09,43,4.10
2006,12,12,09,44,7.70
2006,12,12,09,45,7.50
2006,12,12,09,46,8.80
2006,12,12,09,47,3.90
2006,12,12,09,48,3.50
2006,12,12,09,49,8.10
2006,12,12,09,50,5.60
2006,12,12,09,51,6.40
2006,12,12,09,52,6.80
2006,12,12,09,53,10.10
2006,12,12,09,54,7.60
2006,12,12,09,55,8.90
2006,12,12,09,56,10.50
2006,12,12,09,57,12.50
2006,12,12,09,58,8.30
2006,12,12,09,59,9.60
2006,12,12,10,00,7.00
2006,12,12,10,01,3.90
2006,12,12,10,02,6.10
2006,12,12,10,03,4.30
2006,12,12,10,04,8.10
2006,12,12,10,05,3.20
2006,12,12,10,06,5.80
2006,12,12,10,07,9.30
2006,12,12,10,08,9.50
2006,12,12,10,09,12.70
2006,12,12,10,10,17.00
2006,12,12,10,11,13.00
2006,12,12,10,12,15.10
2006,12,12,10,13,11.60
2006,12,12,10,14,10.90
2006,12,12,10,15,12.30
2006,12,12,10,16,11.40
2006,12,12,10,17,12.10
2006,12,12,10,18,13.50
2006,12,12,10,19,14.50
2006,12,12,10,20,11.30
2006,12,12,10,21,10.80
2006,12,12,10,22,9.30
2006,12,12,10,23,13.60
2006,12,12,10,24,11.30
2006,12,12,10,25,10.10
2006,12,12,10,26,11.90
2006,12,12,10,27,9.50
2006,12,12,10,28,12.40
2006,12,12,10,29,12.50
2006,12,12,10,30,13.30
2006,12,12,10,31,10.30
2006,12,12,10,32,12.10
2006,12,12,10,33,8.70
2006,12,12,10,34,8.50
2006,12,12,10,35,8.00
2006,12,12,10,36,8.60
2006,12,12,10,37,9.80
2006,12,12,10,38,9.40
2006,12,12,10,39,12.50
2006,12,12,10,40,9.70
2006,12,12,10,41,9.20
2006,12,12,10,42,13.30
2006,12,12,10,43,8.00
2006,12,12,10,44,9.40
2006,12,12,10,45,14.20
2006,12,12,10,46,12.00
2006,12,12,10,47,11.80
2006,12,12,10,48,16.40
2006,12,12,10,49,15.00
2006,12,12,10,50,11.30
2006,12,12,10,51,12.10
2006,12,12,10,52,9.80
2006,12,12,10,53,8.60
2006,12,12,10,54,13.70
2006,12,12,10,55,8.30
2006,12,12,10,56,6.50
2006,12,12,10,57,9.80
2006,12,12,10,58,12.00
2006,12,12,10,59,7.00
2006,12,12,11,00,9.90
2006,12,12,11,01,10.50
2006,12,12,11,02,5.90
2006,12,12,11,03,8.10
2006,12,12,11,04,4.90
2006,12,12,11,05,8.20
2006,12,12,11,06,7.80
2006,12,12,11,07,5.20
2006,12,12,11,08,2.00
2006,12,12,11,09,6.30
2006,12,12,11,10,6.10
2006,12,12,11,11,8.00
2006,12,12,11,12,13.00
2006,12,12,11,13,9.10
2006,12,12,11,14,8.80
2006,12,12,11,15,9.00
2006,12,12,11,16,9.70
2006,12,12,11,17,7.90
2006,12,12,11,18,7.40
2006,12,12,11,19,2.70
2006,12,12,11,20,6.20
2006,12,12,11,21,7.80
2006,12,12,11,22,4.80
2006,12,12,11,23,6.80
2006,12,12,11,24,5.70
2006,12,12,11,25,6.10
2006,12,12,11,26,7.30
2006,12,12,11,27,8.60
2006,12,12,11,28,11.10
2006,12,12,11,29,9.10
2006,12,12,11,30,8.80
2006,12,12,11,31,6.70
2006,12,12,11,32,12.60
2006,12,12,11,33,10.00
2006,12,12,11,34,6.90
2006,12,12,11,35,5.90
2006,12,12,11,36,6.90
2006,12,12,11,37,9.20
2006,12,12,11,38,7.60
2006,12,12,11,39,9.60
2006,12,12,11,40,8.00
2006,12,12,11,41,7.20
2006,12,12,11,42,9.80
2006,12,12,11,43,7.50
2006,12,12,11,44,7.40
2006,12,12,11,45,10.10
2006,12,12,11,46,8.60
2006,12,12,11,47,7.20
2006,12,12,11,48,8.60
2006,12,12,11,49,8.20
2006,12,12,11,50,6.10
2006,12,12,11,51,6.50
2006,12,12,11,52,6.70
2006,12,12,11,53,4.00
2006,12,12,11,54,5.30
2006,12,12,11,55,6.40
2006,12,12,11,56,3.40
2006,12,12,11,57,4.50
2006,12,12,11,58,9.50
2006,12,12,11,59,7.70
2006,12,12,12,00,7.40
2006,12,12,12,01,5.00
2006,12,12,12,02,5.10
2006,12,12,12,03,6.50
2006,12,12,12,04,3.50
2006,12,12,12,05,6.20
2006,12,12,12,06,6.30
2006,12,12,12,07,6.40
2006,12,12,12,08,5.50
2006,12,12,12,09,6.40
2006,12,12,12,10,7.30
2006,12,12,12,11,7.40
2006,12,12,12,12,5.70
2006,12,12,12,13,6.90
2006,12,12,12,14,5.40
2006,12,12,12,15,8.40
2006,12,12,12,16,8.80
2006,12,12,12,17,12.30
2006,12,12,12,18,9.50
2006,12,12,12,19,7.60
2006,12,12,12,20,6.40
2006,12,12,12,21,9.10
2006,12,12,12,22,7.20
2006,12,12,12,23,7.30
2006,12,12,12,24,11.70
2006,12,12,12,25,12.90
2006,12,12,12,26,11.20
2006,12,12,12,27,14.90
2006,12,12,12,28,11.40
2006,12,12,12,29,12.50
2006,12,12,12,30,7.40
2006,12,12,12,31,10.50
2006,12,12,12,32,8.10
2006,12,12,12,33,11.00
2006,12,12,12,34,11.40
2006,12,12,12,35,7.50
2006,12,12,12,36,10.20
2006,12,12,12,37,10.30
2006,12,12,12,38,9.40
2006,12,12,12,39,8.00
2006,12,12,12,40,9.80
2006,12,12,12,41,10.30
2006,12,12,12,42,10.70
2006,12,12,12,43,8.20
2006,12,12,12,44,7.70
2006,12,12,12,45,7.50
2006,12,12,12,46,11.00
2006,12,12,12,47,9.70
2006,12,12,12,48,10.10
2006,12,12,12,49,12.40
2006,12,12,12,50,10.10
2006,12,12,12,51,14.00
2006,12,12,12,52,14.30
2006,12,12,12,53,14.20
2006,12,12,12,54,10.90
2006,12,12,12,55,13.80
2006,12,12,12,56,15.10
2006,12,12,12,57,14.60
2006,12,12,12,58,17.20
2006,12,12,12,59,11.90
2006,12,12,13,00,11.70
2006,12,12,13,01,14.60
2006,12,12,13,02,14.70
2006,12,12,13,03,10.80
2006,12,12,13,04,12.20
2006,12,12,13,05,15.00
2006,12,12,13,06,15.10
2006,12,12,13,07,9.00
2006,12,12,13,08,7.50
2006,12,12,13,09,7.70
2006,12,12,13,10,11.20
2006,12,12,13,11,7.80
2006,12,12,13,12,6.70
2006,12,12,13,13,6.70
2006,12,12,13,14,12.00
2006,12,12,13,15,9.40
2006,12,12,13,16,7.90
2006,12,12,13,17,7.60
2006,12,12,13,18,6.40
2006,12,12,13,19,10.20
2006,12,12,13,20,6.80
2006,12,12,13,21,7.20
2006,12,12,13,22,7.10
2006,12,12,13,23,4.40
2006,12,12,13,24,6.80
2006,12,12,13,25,7.50
2006,12,12,13,26,6.90
2006,12,12,13,27,8.40
2006,12,12,13,28,9.80
2006,12,12,13,29,9.80
2006,12,12,13,30,10.10
2006,12,12,13,31,7.20
2006,12,12,13,32,9.00
2006,12,12,13,33,8.50
2006,12,12,13,34,11.20
2006,12,12,13,35,9.40
2006,12,12,13,36,7.70
2006,12,12,13,37,4.80
2006,12,12,13,38,5.40
2006,12,12,13,39,8.60
2006,12,12,13,40,8.80
2006,12,12,13,41,5.60
2006,12,12,13,42,6.20
2006,12,12,13,43,10.40
2006,12,12,13,44,7.70
2006,12,12,13,45,7.40
2006,12,12,13,46,7.20
2006,12,12,13,47,5.10
2006,12,12,13,48,8.60
2006,12,12,13,49,11.00
2006,12,12,13,50,12.60
2006,12,12,13,51,9.40
2006,12,12,13,52,7.00
2006,12,12,13,53,5.10
2006,12,12,13,54,6.60
2006,12,12,13,55,9.60
2006,12,12,13,56,9.60
2006,12,12,13,57,8.00
2006,12,12,13,58,9.10
2006,12,12,13,59,8.50
2006,12,12,14,00,9.70
2006,12,12,14,01,11.30
2006,12,12,14,02,9.10
2006,12,12,14,03,7.50
2006,12,12,14,04,9.20
2006,12,12,14,05,5.70
2006,12,12,14,06,10.40
2006,12,12,14,07,9.70
2006,12,12,14,08,8.00
2006,12,12,14,09,6.40
2006,12,12,14,10,5.90
2006,12,12,14,11,6.50
2006,12,12,14,12,6.50
2006,12,12,14,13,8.60
2006,12,12,14,14,8.30
2006,12,12,14,15,7.50
2006,12,12,14,16,6.60
2006,12,12,14,17,8.60
2006,12,12,14,18,9.70
2006,12,12,14,19,12.40
2006,12,12,14,20,12.30
2006,12,12,14,21,12.20
2006,12,12,14,22,11.70
2006,12,12,14,23,16.20
2006,12,12,14,24,13.40
2006,12,12,14,25,10.90
2006,12,12,14,26,8.90
2006,12,12,14,27,7.20
2006,12,12,14,28,8.40
2006,12,12,14,29,7.80
2006,12,12,14,30,8.00
2006,12,12,14,31,7.90
2006,12,12,14,32,6.00
2006,12,12,14,33,8.00
2006,12,12,14,34,10.70
2006,12,12,14,35,6.70
2006,12,12,14,36,6.50
2006,12,12,14,37,6.80
2006,12,12,14,38,6.90
2006,12,12,14,39,7.80
2006,12,12,14,40,7.70
2006,12,12,14,41,4.60
2006,12,12,14,42,6.40
2006,12,12,14,43,4.50
2006,12,12,14,44,6.70
2006,12,12,14,45,8.90
2006,12,12,14,46,6.40
2006,12,12,14,47,8.30
2006,12,12,14,48,6.30
2006,12,12,14,49,4.80
2006,12,12,14,50,3.90
2006,12,12,14,51,6.40
2006,12,12,14,52,4.50
2006,12,12,14,53,6.50
2006,12,12,14,54,4.70
2006,12,12,14,55,6.80
2006,12,12,14,56,7.20
2006,12,12,14,57,6.30
2006,12,12,14,58,7.50
2006,12,12,14,59,4.80
2006,12,12,15,00,5.50
2006,12,12,15,01,7.40
2006,12,12,15,02,11.00
2006,12,12,15,03,6.10
2006,12,12,15,04,10.90
2006,12,12,15,05,9.40
2006,12,12,15,06,13.30
2006,12,12,15,07,11.30
2006,12,12,15,08,7.60
2006,12,12,15,09,8.30
2006,12,12,15,10,8.80
2006,12,12,15,11,7.90
2006,12,12,15,12,6.20
2006,12,12,15,13,8.40
2006,12,12,15,14,7.50
2006,12,12,15,15,8.10
2006,12,12,15,16,5.50
2006,12,12,15,17,7.90
2006,12,12,15,18,9.50
2006,12,12,15,19,8.60
2006,12,12,15,20,10.60
2006,12,12,15,21,6.80
2006,12,12,15,22,6.00
2006,12,12,15,23,8.90
2006,12,12,15,24,7.10
2006,12,12,15,25,5.40
2006,12,12,15,26,5.90
2006,12,12,15,27,12.20
2006,12,12,15,28,8.20
2006,12,12,15,29,9.40
2006,12,12,15,30,4.90
2006,12,12,15,31,5.30
2006,12,12,15,32,9.20
2006,12,12,15,33,7.30
2006,12,12,15,34,7.50
2006,12,12,15,35,4.50
2006,12,12,15,36,4.80
2006,12,12,15,37,4.70
2006,12,12,15,38,2.80
2006,12,12,15,39,4.90
2006,12,12,15,40,3.10
2006,12,12,15,41,2.90
2006,12,12,15,42,3.90
2006,12,12,15,43,6.10
2006,12,12,15,44,7.10
2006,12,12,15,45,7.30
2006,12,12,15,46,5.10
2006,12,12,15,47,7.30
2006,12,12,15,48,9.30
2006,12,12,15,49,8.50
2006,12,12,15,50,6.40
2006,12,12,15,51,4.00
2006,12,12,15,52,6.30
2006,12,12,15,53,5.10
2006,12,12,15,54,2.20
2006,12,12,15,55,3.30
2006,12,12,15,56,4.90
2006,12,12,15,57,5.70
2006,12,12,15,58,3.70
2006,12,12,15,59,4.40
2006,12,12,16,00,8.90
2006,12,12,16,01,10.50
2006,12,12,16,02,9.00
2006,12,12,16,03,10.00
2006,12,12,16,04,6.60
2006,12,12,16,05,7.20
2006,12,12,16,06,6.40
2006,12,12,16,07,6.80
2006,12,12,16,08,6.50
2006,12,12,16,09,7.30
2006,12,12,16,10,9.90
2006,12,12,16,11,9.40
2006,12,12,16,12,11.00
2006,12,12,16,13,8.60
2006,12,12,16,14,9.10
2006,12,12,16,15,7.50
2006,12,12,16,16,8.70
2006,12,12,16,17,8.90
2006,12,12,16,18,6.20
2006,12,12,16,19,7.50
2006,12,12,16,20,9.20
2006,12,12,16,21,7.60
2006,12,12,16,22,7.40
2006,12,12,16,23,8.10
2006,12,12,16,24,6.20
2006,12,12,16,25,6.20
2006,12,12,16,26,8.90
2006,12,12,16,27,6.40
2006,12,12,16,28,6.40
2006,12,12,16,29,6.60
2006,12,12,16,30,8.30
2006,12,12,16,31,7.50
2006,12,12,16,32,8.60
2006,12,12,16,33,8.50
2006,12,12,16,34,8.20
2006,12,12,16,35,8.80
2006,12,12,16,36,5.60
2006,12,12,16,37,5.80
2006,12,12,16,38,4.70
2006,12,12,16,39,5.60
2006,12,12,16,40,6.30
2006,12,12,16,41,5.50
2006,12,12,16,42,6.40
2006,12,12,16,43,7.70
2006,12,12,16,44,5.60
2006,12,12,16,45,8.80
2006,12,12,16,46,7.00
2006,12,12,16,47,4.30
2006,12,12,16,48,7.10
2006,12,12,16,49,7.50
2006,12,12,16,50,7.30
2006,12,12,16,51,7.40
2006,12,12,16,52,5.60
2006,12,12,16,53,8.40
2006,12,12,16,54,8.30
2006,12,12,16,55,7.50
2006,12,12,16,56,5.80
2006,12,12,16,57,6.50
2006,12,12,16,58,6.40
2006,12,12,16,59,6.50
2006,12,12,17,00,4.70
2006,12,12,17,01,4.20
2006,12,12,17,02,4.70
2006,12,12,17,03,5.30
2006,12,12,17,04,5.50
2006,12,12,17,05,9.40
2006,12,12,17,06,5.90
2006,12,12,17,07,4.20
2006,12,12,17,08,6.80
2006,12,12,17,09,7.30
2006,12,12,17,10,6.80
2006,12,12,17,11,5.70
2006,12,12,17,12,7.80
2006,12,12,17,13,5.90
2006,12,12,17,14,8.00
2006,12,12,17,15,8.10
2006,12,12,17,16,8.20
2006,12,12,17,17,7.40
2006,12,12,17,18,6.60
2006,12,12,17,19,6.80
2006,12,12,17,20,5.80
2006,12,12,17,21,7.80
2006,12,12,17,22,10.70
2006,12,12,17,23,6.10
2006,12,12,17,24,5.10
2006,12,12,17,25,8.10
2006,12,12,17,26,10.80
2006,12,12,17,27,7.00
2006,12,12,17,28,10.10
2006,12,12,17,29,7.90
2006,12,12,17,30,9.70
2006,12,12,17,31,12.40
2006,12,12,17,32,8.40
2006,12,12,17,33,5.20
2006,12,12,17,34,9.60
2006,12,12,17,35,6.00
2006,12,12,17,36,14.70
2006,12,12,17,37,9.80
2006,12,12,17,38,9.70
2006,12,12,17,39,9.20
2006,12,12,17,40,11.10
2006,12,12,17,41,14.30
2006,12,12,17,42,11.00
2006,12,12,17,43,9.20
2006,12,12,17,44,10.10
2006,12,12,17,45,12.00
2006,12,12,17,46,8.00
2006,12,12,17,47,8.00
2006,12,12,17,48,7.60
2006,12,12,17,49,12.50
2006,12,12,17,50,14.80
2006,12,12,17,51,8.40
2006,12,12,17,52,11.20